Location: Grange Rosano
(44.4500°N, 6.9667°E)
Time: 08:34:48
(UTC+00:00)

USA 229 DEB - Pass Details

Date: 26 May 2022
Orbit: 934 x 1278 km, 63.4° (Epoch: 24 May)

Event Time Altitude Azimuth Distance (km) Brightness Sun altitude
Rises 01:01:55 0° 318° (NW) 4,006 7.0 -21.1°
Reaches altitude 10° 01:04:39 10° 313° (NW) 3,090 6.3 -20.9°
Maximum altitude 01:11:42 47° 243° (WSW) 1,581 4.2 -20.4°
Enters shadow 01:15:06 30° 191° (S) 2,063 4.6 -20.1°
